This is the latest recevied weather packets stored in our database for station/object BV3BA-13. If no packets are shown the sender has not sent any weather packets the latest 10 day(s).
| Time | Temp. | Humidity | Pressure | Rain* | Wind** | Luminosity | Snow |
|---|---|---|---|---|---|---|---|
| 1777949224 | 20.56° C | 94% | 1011.9 hPa | 0.51 mm | - | - | - |
| 1777948624 | 20.56° C | 92% | 1011.9 hPa | 0.51 mm | - | - | - |
| 1777948024 | 20° C | 93% | 1011.8 hPa | 0.51 mm | - | - | - |
| 1777947423 | 20° C | 93% | 1012 hPa | 0.51 mm | - | - | - |
| 1777946824 | 20° C | 93% | 1012.1 hPa | 0 mm | - | - | - |
| 1777946224 | 20° C | 95% | 1011.9 hPa | 0 mm | - | - | - |
| 1777945623 | 19.44° C | 95% | 1011.9 hPa | 0.51 mm | - | - | - |
| 1777944423 | 19.44° C | 96% | 1012.1 hPa | 1.52 mm | - | - | - |
| 1777943823 | 19.44° C | 96% | 1012.2 hPa | 1.52 mm | - | - | - |
| 1777943224 | 19.44° C | 96% | 1012.1 hPa | 2.03 mm | - | - | - |
| 1777942624 | 19.44° C | 96% | 1012.1 hPa | 2.03 mm | - | - | - |
| 1777942023 | 19.44° C | 96% | 1012 hPa | 1.52 mm | - | - | - |
| 1777941428 | 19.44° C | 96% | 1011.9 hPa | 2.03 mm | - | - | - |
| 1777940825 | 18.89° C | 96% | 1011.9 hPa | 1.52 mm | - | - | - |
| 1777940225 | 18.89° C | 96% | 1011.9 hPa | 2.03 mm | - | - | - |
| 1777939624 | 18.89° C | 95% | 1011.8 hPa | 1.52 mm | - | - | - |
| 1777939024 | 18.89° C | 96% | 1011.8 hPa | 2.03 mm | - | - | - |
| 1777938423 | 18.89° C | 96% | 1011.7 hPa | 2.54 mm | - | - | - |
| 1777937823 | 18.89° C | 96% | 1011.5 hPa | 2.54 mm | - | - | - |
| 1777937224 | 18.33° C | 96% | 1011.5 hPa | 2.03 mm | - | - | - |
| 1777936624 | 18.33° C | 96% | 1011.5 hPa | 1.52 mm | - | - | - |
| 1777936024 | 18.33° C | 95% | 1011.4 hPa | 2.03 mm | - | - | - |
| 1777935424 | 18.89° C | 96% | 1011.5 hPa | 1.52 mm | - | - | - |
| 1777934823 | 18.89° C | 96% | 1011.4 hPa | 2.54 mm | - | - | - |
| 1777934224 | 18.33° C | 95% | 1011.3 hPa | 2.54 mm | - | - | - |
* Rain latest hour (hover to see other rain measurements)
** Current wind speed in m/s (hover to see current wind gust speed)